Погода в Мамедкала

Россия / Республика Дагестан     42°10′12″N   48°07′09″E
темп.,
°C
ветер,
м/с
пор.,
м/с
влажн.,
%
обл.,
%
осадки,
мм/ч
давл.,
гПа
погр.,
м
8 мая, сб
сб800:00+11ю11875 0.0 101915
03:00+11ююз11864 0.0 101913
06:00+13юв12820 0.0 101993
09:00+19вюв34620 0.0 1018631
12:00+21в66535 0.0 1017888
15:00+20вюв565558 0.0 1015687
18:00+16вюв35726 0.0 1015248
21:00+13вюв129097 0.0 101580
9 мая, вс
вс900:00+12ссв019411 0.0 101213
03:00+12юв119058 0.0 101013
06:00+14в11811 0.0 100993
09:00+19всв31659 0.0 1007501
12:00+21св325643 0.0 1006641
15:00+21ссв336194 0.0 1005501
18:00+17с4879100 0.0 1007386
21:00+14с3788100 0.3 1011390
10 мая, пн
пн1000:00+12с6983100 0.6 1013405
03:00+10ссз61181100 1.7 1015616
06:00+9зсз2688100 10.4 1019540
09:00+9ссз41080100 16.1 10201031
12:00+11з147598 3.8 10211083
15:00+12ю226675 3.9 1021991
18:00+12юз236447 0.0 1020442
21:00+9юз33736 0.0 102144
11 мая, вт
вт1100:00+9зюз336734 0.0 102147
03:00+8зюз22615 0.0 102020
06:00+11зюз22576 0.0 102073
09:00+15в34455 0.0 10191134
12:00+17в764412 0.0 10181429
15:00+15в544938 0.0 10181207
18:00+13в33611 0.0 1019343
21:00+10зюз11750 0.0 102021
12 мая, ср
ср1200:00+9зюз11770 0.0 101922
03:00+9юз22790 0.0 101921
06:00+11ююз11700 0.0 101995
09:00+16в33530 0.0 1018804
12:00+17всв43540 0.0 1017997
15:00+17св32590 0.0 1016817
18:00+15св22720 0.0 1016285
21:00+12з11860 0.0 101722